Location: Breux
(46.3269°N, 3.2993°E)
Time: 11:32:08
(UTC+00:00)

Iridium 4 Rocket - Pass Details

Date: 09 April 2020
Orbit: 586 x 904 km, 86.9° (Epoch: 03 June)

Event Time Altitude Azimuth Distance (km) Brightness Sun altitude
Rises 19:52:25 0° 7° (N) 2,851 6.8 -14.6°
Reaches altitude 10° 19:54:54 10° 20° (NNE) 1,927 5.7 -15.0°
Maximum altitude 19:58:29 27° 79° (E) 1,145 4.0 -15.5°
Enters shadow 19:59:07 26° 95° (E) 1,177 4.0 -15.6°
